Location: 22
(39.7117°N, 89.5929°W)
Time: 09:58:46
(UTC-05:00)

S-56A Canister/Altair - Pass Details

Date: 16 February 2023
Orbit: 638 x 2493 km, 38.9° (Epoch: 25 March)

Event Time Altitude Azimuth Distance (km) Brightness Sun altitude
Rises 04:29:34 0° 205° (SSW) 4,667 - -27.6°
Exits shadow 04:32:13 - 197° (SSW) 3,860 10.9 -27.1°
Reaches altitude 10° 04:34:11 10° 189° (S) 3,299 10.6 -26.7°
Maximum altitude 04:39:08 18° 150° (SSE) 2,343 10.2 -25.7°
Drops below altitude 10° 04:43:08 10° 108° (ESE) 2,569 11.1 -25.0°
Sets 04:46:07 0° 89° (E) 3,294 12.2 -24.4°
